Location: Grambois
(43.7619°N, 5.5873°E)
Time: 16:33:54
(UTC+00:00)

Cosmos 2322 Rocket - Pass Details

Date: 07 June 2020
Orbit: 833 x 850 km, 71.0° (Epoch: 12 July)

Event Time Altitude Azimuth Distance (km) Brightness Sun altitude
Exits shadow 01:29:26 29° 180° (S) 1,475 3.0 -18.6°
Maximum altitude 01:32:13 62° 110° (ESE) 936 2.4 -18.4°
Drops below altitude 10° 01:37:45 10° 31° (NNE) 2,451 5.9 -17.9°
Sets 01:40:13 0° 28° (NNE) 3,389 7.1 -17.7°
